Location: Anciles
(42.5833°N, 0.5167°E)
Time: 01:48:13
(UTC+00:00)

Cosmos 1666 - Pass Details

Date: 10 December 2019
Orbit: 498 x 521 km, 82.5° (Epoch: 27 January)

Event Time Altitude Azimuth Distance (km) Brightness Sun altitude
Rises 16:57:56 0° 6° (N) 2,605 6.0 -6.3°
Reaches altitude 10° 17:00:29 10° 23° (NNE) 1,713 4.9 -6.7°
Maximum altitude 17:03:21 20° 73° (ENE) 1,188 3.9 -7.2°
Drops below altitude 10° 17:06:11 10° 123° (ESE) 1,699 5.0 -7.6°
Sets 17:08:41 0° 140° (SE) 2,576 6.1 -8.0°
